TimeEDT,TemperatureF,Dew PointF,Humidity,Sea Level PressureIn,VisibilityMPH,Wind Direction,Wind SpeedMPH,Gust SpeedMPH,PrecipitationIn,Events,Conditions,WindDirDegrees,DateUTC
12:52 AM,55.9,37.9,51,30.13,10.0,WNW,5.8,-,N/A,,Partly Cloudy,300,2012-10-11 04:52:00
1:52 AM,55.0,35.1,47,30.14,10.0,WNW,8.1,-,N/A,,Clear,290,2012-10-11 05:52:00
2:52 AM,54.0,35.1,49,30.15,10.0,West,5.8,-,N/A,,Clear,280,2012-10-11 06:52:00
3:52 AM,53.1,34.0,48,30.17,10.0,NW,12.7,-,N/A,,Clear,310,2012-10-11 07:52:00
4:52 AM,52.0,33.1,49,30.20,10.0,NW,10.4,-,N/A,,Clear,310,2012-10-11 08:52:00
5:52 AM,48.9,30.9,50,30.24,10.0,NNW,6.9,-,N/A,,Clear,330,2012-10-11 09:52:00
6:52 AM,48.9,30.9,50,30.27,10.0,WNW,6.9,-,N/A,,Clear,290,2012-10-11 10:52:00
7:52 AM,48.9,30.0,48,30.29,10.0,WNW,10.4,19.6,N/A,,Clear,300,2012-10-11 11:52:00
8:52 AM,50.0,30.9,48,30.30,10.0,NW,16.1,-,N/A,,Clear,320,2012-10-11 12:52:00
9:52 AM,52.0,30.9,45,30.32,10.0,NNW,16.1,25.3,N/A,,Clear,340,2012-10-11 13:52:00
10:52 AM,55.4,32.0,41,30.32,10.0,NNW,15.0,-,N/A,,Clear,330,2012-10-11 14:52:00
11:52 AM,57.0,30.9,37,30.31,10.0,North,8.1,-,N/A,,Clear,360,2012-10-11 15:52:00
12:52 PM,57.9,30.0,35,30.28,10.0,Variable,3.5,-,N/A,,Clear,0,2012-10-11 16:52:00
1:52 PM,61.0,30.9,32,30.26,10.0,NNW,4.6,-,N/A,,Clear,340,2012-10-11 17:52:00
2:52 PM,62.1,32.0,32,30.24,10.0,NW,3.5,-,N/A,,Clear,310,2012-10-11 18:52:00
3:52 PM,62.6,33.8,34,30.22,10.0,South,6.9,-,N/A,,Clear,190,2012-10-11 19:52:00
4:52 PM,61.0,34.0,36,30.22,10.0,South,5.8,-,N/A,,Clear,170,2012-10-11 20:52:00
5:52 PM,60.1,35.1,39,30.22,10.0,SSW,11.5,-,N/A,,Clear,200,2012-10-11 21:52:00
6:52 PM,57.2,35.6,44,30.21,10.0,South,6.9,-,N/A,,Partly Cloudy,190,2012-10-11 22:52:00
7:52 PM,55.9,37.9,51,30.22,10.0,SSW,5.8,-,N/A,,Clear,210,2012-10-11 23:52:00
8:52 PM,53.6,41.0,62,30.21,10.0,SSW,6.9,-,N/A,,Clear,200,2012-10-12 00:52:00
9:52 PM,53.1,41.0,64,30.21,10.0,SSW,5.8,-,N/A,,Partly Cloudy,210,2012-10-12 01:52:00
11:52 PM,53.6,39.2,58,30.19,10.0,SW,3.5,-,N/A,,Clear,220,2012-10-12 03:52:00